Flight Track Log - Related Links

Times and Time Zones

All times are in EDT time to prevent confusion due to time zone crossing. See the UAL4380 flight status page for this flight to view local times or setup timezone preferences in your user account.

Time Position Orientation Groundspeed Altitude Reporting Facility
EDT Latitude Longitude Course Direction KTS MPH feet Rate Location/Type
Sat 06:10:28 AM 35.2000 -80.9658 30° Northeast 181 208 1,500  Level Atlanta Center
Sat 06:10:53 AM 35.1836 -80.9844 223° Southwest 189 217 2,600 2,000 Climbing FAA TRACON SMA TRACON (SMA)
Sat 06:11:13 AM 35.1722 -81.0006 229° Southwest 198 228 3,000 1,077 Climbing FAA TRACON SMA TRACON (SMA)
Sat 06:11:32 AM 35.1536 -81.0114 205° Southwest 252 290 3,300 1,500 Climbing FAA TRACON SMA TRACON (SMA)
Sat 06:11:53 AM 35.1269 -81.0025 165° South 269 310 4,000 2,100 Climbing FAA TRACON SMA TRACON (SMA)
Sat 06:12:12 AM 35.1133 -80.9803 127° Southeast 272 313 4,700 2,400 Climbing FAA TRACON SMA TRACON (SMA)
Sat 06:12:33 AM 35.1136 -80.9528 89° East 266 306 5,600 2,341 Climbing FAA TRACON SMA TRACON (SMA)
Sat 06:12:53 AM 35.1289 -80.9231 58° Northeast 279 321 6,300 2,000 Climbing FAA TRACON SMA TRACON (SMA)
Sat 06:13:12 AM 35.1403 -80.8964 62° Northeast 291 335 6,900 2,250 Climbing FAA TRACON SMA TRACON (SMA)
Sat 06:13:33 AM 35.1539 -80.8625 64° Northeast 293 337 7,800 2,250 Climbing FAA TRACON SMA TRACON (SMA)
Sat 06:13:52 AM 35.1653 -80.8347 63° Northeast 299 344 8,400 1,800 Climbing FAA TRACON SMA TRACON (SMA)
Sat 06:14:00 AM 35.2144 -80.5564 30° Northeast  Level FlightAware Approximate
Sat 06:14:13 AM 35.1767 -80.8064 64° Northeast 307 353 9,000  Level FAA TRACON SMA TRACON (SMA)
Sat 06:14:33 AM 35.1914 -80.7694 64° Northeast 314 361 9,700 1,846 Climbing FAA TRACON SMA TRACON (SMA)
Sat 06:14:52 AM 35.2033 -80.7394 64° Northeast 319 367 10,200 1,200 Climbing FAA TRACON SMA TRACON (SMA)
Sat 06:15:00 AM 35.3110 -80.4874 30° Northeast  Level FlightAware Approximate
Sat 06:15:13 AM 35.2156 -80.7078 65° Northeast 332 382 10,500  Level FAA TRACON SMA TRACON (SMA)
Sat 06:15:32 AM 35.2322 -80.6656 64° Northeast 362 417 10,800 900 Climbing FAA TRACON SMA TRACON (SMA)
Sat 06:15:53 AM 35.2461 -80.6303 64° Northeast 374 430 11,100 878 Climbing FAA TRACON SMA TRACON (SMA)
Sat 06:16:13 AM 35.2603 -80.5939 65° Northeast 382 440 11,400 1,077 Climbing FAA TRACON SMA TRACON (SMA)
Sat 06:16:32 AM 35.2781 -80.5481 65° Northeast 389 448 11,800 1,050 Climbing FAA TRACON SMA TRACON (SMA)
Sat 06:16:53 AM 35.2925 -80.5108 65° Northeast 391 450 12,100 1,050 Climbing FAA TRACON SMA TRACON (SMA)
Sat 06:17:12 AM 35.3061 -80.4778 63° Northeast 395 455 12,500 1,650 Climbing FAA TRACON SMA TRACON (SMA)
Sat 06:17:33 AM 35.3261 -80.4256 65° Northeast 401 461 13,200 1,610 Climbing FAA TRACON SMA TRACON (SMA)
Sat 06:17:53 AM 35.3411 -80.3875 64° Northeast 403 464 13,600 1,050 Climbing FAA TRACON SMA TRACON (SMA)
Sat 06:18:13 AM 35.3553 -80.3528 63° Northeast 404 465 13,900 1,200 Climbing FAA TRACON SMA TRACON (SMA)
Sat 06:18:33 AM 35.3747 -80.3000 66° East 410 472 14,400 1,231 Climbing FAA TRACON SMA TRACON (SMA)
Sat 06:18:52 AM 35.3900 -80.2606 65° Northeast 414 476 14,700 1,050 Climbing FAA TRACON SMA TRACON (SMA)
Sat 06:19:13 AM 35.4058 -80.2208 64° Northeast 419 482 15,100 1,350 Climbing FAA TRACON SMA TRACON (SMA)
Sat 06:19:32 AM 35.4247 -80.1708 65° Northeast 420 483 15,600 1,200 Climbing FAA TRACON SMA TRACON (SMA)
Sat 06:19:53 AM 35.4381 -80.1294 68° East 422 486 15,900 878 Climbing FAA TRACON SMA TRACON (SMA)
Sat 06:20:13 AM 35.4481 -80.0864 74° East 425 489 16,200 1,050 Climbing FAA TRACON SMA TRACON (SMA)
Sat 06:20:33 AM 35.4611 -80.0325 73° East 429 494 16,600 1,050 Climbing FAA TRACON SMA TRACON (SMA)
Sat 06:20:53 AM 35.4736 -79.9933 69° East 431 496 16,900 1,077 Climbing FAA TRACON SMA TRACON (SMA)
Sat 06:21:12 AM 35.4839 -79.9464 75° East 434 499 17,300 1,200 Climbing FAA TRACON SMA TRACON (SMA)
Sat 06:21:33 AM 35.4978 -79.8919 73° East 435 501 17,700 900 Climbing FAA TRACON SMA TRACON (SMA)
Sat 06:21:52 AM 35.5067 -79.8592 72° East 437 503 17,900 300 Climbing FAA TRACON SMA TRACON (SMA)
Sat 06:22:13 AM 35.5067 -79.8592 141° Southeast 437 503 17,900 1,075 Level FAA TRACON SMA TRACON (SMA)
Sat 06:22:59 AM 35.5497 -79.6894 73° East 431 496 19,100 1,245 Climbing Washington Center
Sat 06:23:59 AM 35.5856 -79.5558 72° East 439 505 20,100 1,050 Climbing Washington Center
Sat 06:24:59 AM 35.6467 -79.4081 63° Northeast 450 518 21,200 1,100 Climbing Washington Center
Sat 06:25:59 AM 35.7517 -79.3211 34° Northeast 430 495 22,300 1,200 Climbing Washington Center
Sat 06:26:59 AM 35.8567 -79.2336 34° Northeast 440 506 23,600 1,300 Climbing Washington Center
Sat 06:27:59 AM 35.9614 -79.1514 32° Northeast 440 506 24,900 1,350 Climbing Washington Center
Sat 06:28:59 AM 36.0639 -79.0661 34° Northeast 440 506 26,300 1,300 Climbing Washington Center
Sat 06:29:59 AM 36.1664 -78.9831 33° Northeast 440 506 27,500 1,150 Climbing Washington Center
Sat 06:30:59 AM 36.2647 -78.8997 34° Northeast 434 499 28,600 1,100 Climbing Washington Center
Sat 06:31:59 AM 36.3672 -78.8164 33° Northeast 434 499 29,700 1,050 Climbing Washington Center
Sat 06:32:59 AM 36.4717 -78.7278 34° Northeast 434 499 30,700 1,000 Climbing Washington Center
Sat 06:33:59 AM 36.5761 -78.6439 33° Northeast 434 499 31,700 950 Climbing Washington Center
Sat 06:34:59 AM 36.6617 -78.5694 35° Northeast 446 513 32,600 1,000 Climbing Washington Center
Sat 06:35:59 AM 36.7894 -78.4631 34° Northeast 452 520 33,700 1,050 Climbing Washington Center
Sat 06:36:59 AM 36.8936 -78.3708 35° Northeast 452 520 34,700 650 Climbing Washington Center
Sat 06:37:59 AM 37.0044 -78.2758 34° Northeast 465 535 35,000 150 Climbing Washington Center
Sat 06:38:59 AM 37.1192 -78.1783 34° Northeast 481 554 35,000  Level Washington Center
Sat 06:39:59 AM 37.2381 -78.0806 33° Northeast 496 571 35,000  Level Washington Center
Sat 06:40:59 AM 37.3611 -77.9750 34° Northeast 510 587 35,000  Level Washington Center
Sat 06:41:59 AM 37.4842 -77.8686 34° Northeast 527 606 35,000  Level Washington Center
Sat 06:42:59 AM 37.6072 -77.7597 35° Northeast 533 613 35,000  Level Washington Center
Sat 06:43:59 AM 37.7303 -77.6478 36° Northeast 533 613 35,000  Level Washington Center
Sat 06:44:59 AM 37.8489 -77.5378 36° Northeast 533 613 35,000  Level Washington Center
Sat 06:45:59 AM 37.9714 -77.4278 35° Northeast 533 613 35,000  Level Washington Center
Sat 06:46:59 AM 38.0794 -77.3275 36° Northeast 533 613 35,000  Level Washington Center
Sat 06:47:59 AM 38.1997 -77.2167 36° Northeast 533 613 35,000  Level Washington Center
Sat 06:48:59 AM 38.3200 -77.1028 37° Northeast 533 613 35,000  Level Washington Center
Sat 06:49:59 AM 38.4425 -76.9914 35° Northeast 533 613 35,000  Level Washington Center
Sat 06:50:59 AM 38.5625 -76.8822 35° Northeast 533 613 35,000  Level Washington Center
Sat 06:51:59 AM 38.6844 -76.7672 36° Northeast 533 613 35,000 -150 Level Washington Center
Sat 06:52:59 AM 38.8003 -76.6411 40° Northeast 538 619 34,700 -800 Descending Washington Center
Sat 06:53:59 AM 38.9119 -76.5094 43° Northeast 538 619 33,400 -1,600 Descending Washington Center
Sat 06:54:59 AM 39.0192 -76.3850 42° Northeast 533 613 31,500 -1,950 Descending Washington Center
Sat 06:55:59 AM 39.1325 -76.2553 42° Northeast 533 613 29,500 -2,250 Descending Washington Center
Sat 06:56:59 AM 39.2497 -76.1169 42° Northeast 528 608 27,000 -1,250 Descending Washington Center
Sat 06:57:59 AM 39.3586 -75.9889 42° Northeast 523 602 27,000 -400 Level Washington Center
Sat 06:58:59 AM 39.4653 -75.8603 43° Northeast 523 602 26,200 -1,250 Descending Washington Center
Sat 06:59:59 AM 39.5761 -75.7317 42° Northeast 528 608 24,500 -1,900 Descending Washington Center
Sat 07:00:59 AM 39.6844 -75.6050 42° Northeast 528 608 22,400 -2,250 Descending Washington Center
Sat 07:01:59 AM 39.7781 -75.4889 44° Northeast 498 573 20,000 -2,450 Descending Washington Center
Sat 07:02:59 AM 39.8717 -75.3753 43° Northeast 470 541 17,500 -2,300 Descending Washington Center
Sat 07:03:59 AM 39.9506 -75.2831 42° Northeast 451 519 15,400 -2,150 Descending Washington Center
Sat 07:04:59 AM 40.0294 -75.1822 44° Northeast 418 481 13,200 -1,900 Descending Washington Center
Sat 07:05:59 AM 40.1061 -75.0897 43° Northeast 385 443 11,600 -1,600 Descending Washington Center
Sat 07:06:59 AM 40.1744 -75.0050 43° Northeast 357 411 10,000 -1,692 Descending Washington Center
Sat 07:07:56 AM 40.2500 -74.9167 42° Northeast 325 374 8,300 -1,081 Descending New York TRACON
Sat 07:08:50 AM 40.3000 -74.8500 45° Northeast 296 341 8,000 -526 Descending New York TRACON
Sat 07:09:50 AM 40.3500 -74.7500 57° Northeast 305 351 7,300 -843 Descending New York TRACON
Sat 07:10:51 AM 40.3833 -74.6667 62° Northeast 292 336 6,300 -1,050 Descending New York TRACON
Sat 07:11:50 AM 40.4167 -74.5667 66° East 272 313 5,200 -706 Descending New York TRACON
Sat 07:12:50 AM 40.4333 -74.4833 75° East 241 277 4,900 -650 Descending New York TRACON
Sat 07:13:50 AM 40.4500 -74.4000 75° East 240 276 3,900 -950 Descending New York TRACON
Sat 07:14:50 AM 40.4500 -74.3167 90° East 227 261 3,000 -526 Descending New York TRACON
Sat 07:15:44 AM 40.5000 -74.2833 27° Northeast 180 207 2,900 -53 Descending New York TRACON
Sat 07:16:44 AM 40.5333 -74.2667 21° North 182 209 2,900 -397 Level New York TRACON
Sat 07:17:45 AM 40.5833 -74.2333 27° Northeast 177 204 2,100 -787 Descending New York TRACON

Login

Don't have an account? Register now (free) for customized features, flight alerts, and more!